Date String (YYYY-MM-DD hh:mm:ss) UTC,Instrument flags,Ambient pressure (hPa),Sample flow (lpm),Bypass flow (lpm),Sample temperature (°C),Ambient temperature (°C),ASC tube jacket temperature (°C),LED temperature (°C),Box temperature (°C),Sample RH (%),Span deviation,Mass concentration (μg/m³),Mass concentration (μg/m³),Mass concentration (μg/m³)
DateTimeUTC,F1_M11,P_M11,Q1_M11,Q2_M11,T1_M11,T2_M11,T3_M11,T4_M11,T5_M11,U1_M11,ZSPAN_M11,X0_M11,X2_M11,X1_M11
2021-11-23 10:00:00,,0823.1,5.00,0.00,25.7,24.9,00.0,34.6,27.4,06.4,0000.0,0001.32,0000.79,0000.53
2021-11-23 10:01:00,,0823.1,5.00,0.00,25.7,24.8,00.0,34.6,27.5,06.4,0000.0,0001.52,0000.86,0000.58
2021-11-23 10:02:00,,0823.1,5.00,0.00,25.7,24.8,00.0,34.6,27.4,06.0,0000.0,0001.61,0000.88,0000.59
2021-11-23 10:03:00,,0823.1,4.99,0.00,25.7,24.8,00.0,34.6,27.4,05.9,0000.0,0001.61,0000.88,0000.59
2021-11-23 10:04:00,,0823.1,5.01,0.00,25.7,24.8,00.0,34.7,27.5,05.8,0000.0,0001.64,0000.89,0000.58
2021-11-23 10:05:00,,0823.1,4.99,0.00,25.7,24.8,00.0,34.7,27.4,05.9,0000.0,0001.67,0000.90,0000.59
2021-11-23 10:06:00,,0823.1,4.99,0.00,25.7,24.7,00.0,34.6,27.4,05.8,0000.0,0001.69,0000.91,0000.60
2021-11-23 10:07:00,,0823.1,5.00,0.00,25.7,24.7,00.0,34.7,27.5,05.8,0000.0,0001.70,0000.90,0000.59
2021-11-23 10:08:00,,0823.1,5.00,0.00,25.6,24.8,00.0,34.7,27.5,05.8,0000.0,0001.74,0000.91,0000.59
2021-11-23 10:09:00,,0823.1,4.99,0.00,25.7,24.8,00.0,34.7,27.4,05.8,0000.0,0001.73,0000.90,0000.58
2021-11-23 10:10:00,,0823.1,5.00,0.00,25.6,24.7,00.0,34.7,27.4,05.8,0000.0,0001.75,0000.89,0000.56
2021-11-23 10:11:00,,0823.1,4.99,0.00,25.6,24.8,00.0,34.7,27.4,06.0,0000.0,0001.55,0000.80,0000.52
2021-11-23 10:12:00,,0823.1,5.01,0.00,25.7,24.8,00.0,34.7,27.5,06.2,0000.0,0001.34,0000.72,0000.49
2021-11-23 10:13:00,,0823.1,4.99,0.00,25.7,24.8,00.0,34.7,27.5,05.9,0000.0,0001.10,0000.66,0000.47
2021-11-23 10:14:00,,0823.0,5.00,0.00,25.7,24.8,00.0,34.7,27.5,06.0,0000.0,0001.13,0000.66,0000.46
2021-11-23 10:15:00,,0823.0,5.00,0.00,25.7,24.8,00.0,34.7,27.5,06.4,0000.0,0001.30,0000.70,0000.51
2021-11-23 10:16:00,,0822.9,4.99,0.00,25.7,24.8,00.0,34.7,27.5,06.4,0000.0,0001.55,0000.78,0000.56
2021-11-23 10:17:00,,0823.0,4.99,0.00,25.7,24.8,00.0,34.7,27.5,06.3,0000.0,0001.98,0000.85,0000.60
2021-11-23 10:18:00,,0822.9,5.01,0.00,25.7,24.9,00.0,34.7,27.5,06.2,0000.0,0002.11,0000.89,0000.64
2021-11-23 10:19:00,,0823.0,4.99,0.00,25.7,24.9,00.0,34.7,27.5,06.2,0000.0,0002.46,0000.98,0000.68
2021-11-23 10:20:00,,0823.2,5.00,0.00,25.7,24.8,00.0,34.7,27.5,06.2,0000.0,0002.66,0001.06,0000.72
2021-11-23 10:21:00,,0822.9,5.00,0.00,25.7,24.8,00.0,34.7,27.5,06.1,0000.0,0002.90,0001.12,0000.75
2021-11-23 10:22:00,,0823.0,4.99,0.00,25.7,24.8,00.0,34.7,27.5,05.9,0000.0,0002.95,0001.14,0000.76
2021-11-23 10:23:00,,0823.0,5.01,0.00,25.7,24.8,00.0,34.7,27.5,06.0,0000.0,0003.06,0001.16,0000.75
2021-11-23 10:24:00,,0823.1,5.00,0.00,25.7,24.8,00.0,34.7,27.5,06.0,0000.0,0003.25,0001.23,0000.77
2021-11-23 10:25:00,,0823.1,4.99,0.00,25.7,24.8,00.0,34.7,27.5,06.2,0000.0,0003.32,0001.29,0000.80
2021-11-23 10:26:00,,0823.1,4.99,0.00,25.7,24.8,00.0,34.7,27.5,06.2,0000.0,0003.37,0001.31,0000.80
2021-11-23 10:27:00,,0823.1,5.00,0.00,25.7,24.9,00.0,34.7,27.5,06.3,0000.0,0003.32,0001.33,0000.78
2021-11-23 10:28:00,,0823.1,5.00,0.00,25.7,24.9,00.0,34.7,27.5,06.3,0000.0,0003.11,0001.34,0000.76
2021-11-23 10:29:00,,0823.0,5.00,0.00,25.7,24.9,00.0,34.7,27.5,06.3,0000.0,0003.07,0001.39,0000.76
2021-11-23 10:30:00,,0823.0,5.00,0.00,25.7,24.9,00.0,34.7,27.5,06.3,0000.0,0002.85,0001.37,0000.77
2021-11-23 10:31:00,,0822.9,5.01,0.00,25.7,24.9,00.0,34.7,27.5,06.3,0000.0,0002.87,0001.39,0000.78
2021-11-23 10:32:00,,0822.9,5.00,0.00,25.7,24.8,00.0,34.7,27.4,06.3,0000.0,0002.70,0001.36,0000.78
2021-11-23 10:33:00,,0822.8,5.00,0.00,25.7,24.8,00.0,34.7,27.4,06.3,0000.0,0002.87,0001.38,0000.80
2021-11-23 10:34:00,,0822.8,5.01,0.00,25.7,24.8,00.0,34.7,27.5,06.2,0000.0,0003.06,0001.41,0000.82
2021-11-23 10:35:00,,0822.8,4.99,0.00,25.7,24.9,00.0,34.7,27.5,06.1,0000.0,0002.88,0001.36,0000.82
2021-11-23 10:36:00,,0822.8,5.00,0.00,25.7,24.9,00.0,34.7,27.5,06.0,0000.0,0002.85,0001.35,0000.81
2021-11-23 10:37:00,,0822.7,5.00,0.00,25.7,24.9,00.0,34.7,27.5,06.0,0000.0,0002.67,0001.30,0000.79
2021-11-23 10:38:00,,0822.8,5.00,0.00,25.7,24.9,00.0,34.7,27.5,06.1,0000.0,0002.50,0001.23,0000.78
2021-11-23 10:39:00,,0822.8,5.00,0.00,25.7,24.9,00.0,34.7,27.5,06.0,0000.0,0002.40,0001.18,0000.77
2021-11-23 10:40:00,,0822.8,5.00,0.00,25.7,24.9,00.0,34.7,27.5,06.3,0000.0,0002.37,0001.16,0000.78
2021-11-23 10:41:00,,0822.8,5.01,0.00,25.7,24.9,00.0,34.7,27.5,06.4,0000.0,0002.44,0001.19,0000.79
2021-11-23 10:42:00,,0822.7,4.99,0.00,25.7,24.9,00.0,34.7,27.6,06.4,0000.0,0002.56,0001.18,0000.79
2021-11-23 10:43:00,,0822.7,4.99,0.00,25.7,24.9,00.0,34.7,27.5,06.4,0000.0,0003.33,0001.24,0000.82
2021-11-23 10:44:00,,0822.7,4.99,0.00,25.7,24.9,00.0,34.7,27.5,06.4,0000.0,0003.39,0001.32,0000.84
2021-11-23 10:45:00,,0822.7,5.02,0.00,25.7,24.9,00.0,34.7,27.5,06.4,0000.0,0003.95,0001.31,0000.87
2021-11-23 10:46:00,,0822.7,4.98,0.00,25.7,24.9,00.0,34.7,27.5,06.4,0000.0,0004.61,0001.41,0000.90
2021-11-23 10:47:00,,0822.7,5.00,0.00,25.7,24.9,00.0,34.7,27.5,06.4,0000.0,0005.88,0001.51,0000.94
2021-11-23 10:48:00,,0822.7,5.01,0.00,25.7,24.9,00.0,34.7,27.5,06.4,0000.0,0006.70,0001.57,0000.97
2021-11-23 10:49:00,,0822.7,5.00,0.00,25.7,24.9,00.0,34.7,27.5,06.4,0000.0,0006.84,0001.62,0001.00
2021-11-23 10:50:00,,0822.8,4.99,0.00,25.7,24.9,00.0,34.7,27.5,06.4,0000.0,0007.49,0001.66,0001.03
2021-11-23 10:51:00,,0822.8,5.00,0.00,25.7,24.9,00.0,34.7,27.5,06.4,0000.0,0007.53,0001.65,0001.05
2021-11-23 10:52:00,,0822.7,5.00,0.00,25.7,24.9,00.0,34.7,27.5,06.3,0000.0,0007.72,0001.68,0001.04
2021-11-23 10:53:00,,0822.7,5.01,0.00,25.7,24.9,00.0,34.7,27.5,06.3,0000.0,0007.80,0001.66,0001.04
2021-11-23 10:54:00,,0822.6,4.99,0.00,25.7,24.9,00.0,34.7,27.6,06.3,0000.0,0007.57,0001.63,0001.03
2021-11-23 10:55:00,,0822.6,5.00,0.00,25.7,24.9,00.0,34.7,27.5,06.4,0000.0,0007.59,0001.59,0001.03
2021-11-23 10:56:00,,0822.6,4.99,0.00,25.7,24.9,00.0,34.7,27.5,06.4,0000.0,0007.27,0001.63,0001.04
2021-11-23 10:57:00,,0822.6,5.02,0.00,25.7,24.8,00.0,34.7,27.5,06.4,0000.0,0006.89,0001.66,0001.06
2021-11-23 10:58:00,,0822.6,4.99,0.00,25.7,24.8,00.0,34.7,27.5,06.4,0000.0,0006.50,0001.58,0001.07
2021-11-23 10:59:00,,0822.6,5.01,0.00,25.7,24.8,00.0,34.7,27.5,06.3,0000.0,0006.09,0001.56,0001.08
